| time (UTC) | temp F | wind direction | speed MPH | gust MPH | rain 1hr in | rain 24hr in | rain mn in | humidity % | barometer mb |
| 20260504110242 | 55 | 274 | 1.0 | 2.0 | 0.00 | 0.00 | 0.00 | 47 | 1010.9 |
| 20260504100200 | 53 | 242 | 2.0 | 2.0 | 0.00 | 0.00 | 0.00 | 48 | 1010.9 |
| 20260504090122 | 53 | 192 | 2.0 | 3.0 | 0.00 | 0.00 | 0.00 | 46 | 1010.7 |
| 20260504081552 | 52 | 250 | 2.0 | 3.0 | 0.00 | 0.00 | 0.00 | 49 | 1010.6 |
| 20260504081048 | 52 | 237 | 2.0 | 2.0 | 0.00 | 0.00 | 0.00 | 50 | 1010.7 |
| 20260504080545 | 51 | 254 | 2.0 | 3.0 | 0.00 | 0.00 | 0.00 | 50 | 1010.6 |
| 20260504050358 | 43 | 249 | 1.0 | 1.0 | 0.00 | 0.00 | 0.00 | 76 | 1010.6 |
| 20260504045855 | 43 | 231 | 1.0 | 2.0 | 0.00 | 0.00 | 0.00 | 74 | 1010.6 |
| 20260504045350 | 43 | 241 | 2.0 | 2.0 | 0.00 | 0.00 | 0.00 | 76 | 1010.6 |
| 20260504044847 | 43 | 282 | 0.0 | 0.0 | 0.00 | 0.00 | 0.00 | 72 | 1010.5 |
| 20260504044345 | 43 | 306 | 0.0 | 0.0 | 0.00 | 0.00 | 0.00 | 74 | 1010.4 |
| 20260504043842 | 43 | 293 | 0.0 | 0.0 | 0.00 | 0.00 | 0.00 | 73 | 1010.1 |
| 20260504043338 | 44 | 283 | 0.0 | 0.0 | 0.00 | 0.00 | 0.00 | 74 | 1010.2 |
| 20260504042836 | 43 | 274 | 0.0 | 0.0 | 0.00 | 0.00 | 0.00 | 72 | 1010.0 |
| 20260504042332 | 43 | 286 | 0.0 | 0.0 | 0.00 | 0.00 | 0.00 | 73 | 1010.2 |
| 20260504041828 | 44 | 284 | 0.0 | 0.0 | 0.00 | 0.00 | 0.00 | 73 | 1010.0 |
| 20260504041325 | 44 | 277 | 0.0 | 1.0 | 0.00 | 0.00 | 0.00 | 72 | 1010.1 |
| 20260504040821 | 44 | 282 | 0.0 | 0.0 | 0.00 | 0.00 | 0.00 | 71 | 1010.1 |
| 20260504040319 | 44 | 273 | 0.0 | 1.0 | 0.00 | 0.00 | 0.00 | 72 | 1010.0 |
| 20260504035815 | 44 | 253 | 1.0 | 1.0 | 0.00 | 0.00 | 0.00 | 72 | 1010.0 |
| 20260504035312 | 44 | 264 | 1.0 | 1.0 | 0.00 | 0.00 | 0.00 | 71 | 1010.0 |
| 20260504034809 | 44 | 289 | 0.0 | 0.0 | 0.00 | 0.00 | 0.00 | 71 | 1009.9 |
| 20260504034307 | 44 | 284 | 0.0 | 0.0 | 0.00 | 0.00 | 0.00 | 71 | 1010.0 |
| 20260504033804 | 44 | 269 | 0.0 | 0.0 | 0.00 | 0.00 | 0.00 | 71 | 1009.8 |
| 20260504033302 | 45 | 277 | 0.0 | 0.0 | 0.00 | 0.00 | 0.00 | 71 | 1009.9 |
| 20260504032758 | 45 | 269 | 0.0 | 0.0 | 0.00 | 0.00 | 0.00 | 69 | 1010.0 |
| 20260504032255 | 45 | 286 | 0.0 | 0.0 | 0.00 | 0.00 | 0.00 | 69 | 1010.0 |
| 20260504031752 | 45 | 268 | 0.0 | 1.0 | 0.00 | 0.00 | 0.00 | 70 | 1009.9 |
| 20260504031249 | 46 | 285 | 0.0 | 0.0 | 0.00 | 0.00 | 0.00 | 69 | 1010.1 |
| 20260504030745 | 46 | 288 | 0.0 | 0.0 | 0.00 | 0.00 | 0.00 | 69 | 1010.0 |
| 20260504030243 | 46 | 278 | 0.0 | 0.0 | 0.00 | 0.00 | 0.00 | 69 | 1010.0 |
| 20260504025739 | 46 | 224 | 1.0 | 2.0 | 0.00 | 0.00 | 0.00 | 67 | 1010.0 |
| 20260504025236 | 46 | 279 | 1.0 | 1.0 | 0.00 | 0.00 | 0.00 | 68 | 1009.9 |
| 20260504024733 | 46 | 249 | 1.0 | 1.0 | 0.00 | 0.00 | 0.00 | 66 | 1010.1 |
| 20260504024229 | 47 | 230 | 2.0 | 2.0 | 0.00 | 0.00 | 0.00 | 63 | 1010.0 |
| 20260504023726 | 46 | 271 | 1.0 | 1.0 | 0.00 | 0.00 | 0.00 | 65 | 1010.2 |
| 20260504023222 | 46 | 240 | 1.0 | 2.0 | 0.00 | 0.00 | 0.00 | 66 | 1010.2 |
| 20260504022718 | 47 | 227 | 1.0 | 1.0 | 0.00 | 0.00 | 0.00 | 67 | 1010.1 |
| 20260504022215 | 47 | 247 | 1.0 | 1.0 | 0.00 | 0.00 | 0.00 | 67 | 1010.1 |
| 20260504021712 | 47 | 261 | 1.0 | 1.0 | 0.00 | 0.00 | 0.00 | 66 | 1010.0 |
| 20260504021209 | 47 | 271 | 1.0 | 1.0 | 0.00 | 0.00 | 0.00 | 63 | 1010.0 |
| 20260504020706 | 47 | 269 | 1.0 | 1.0 | 0.00 | 0.00 | 0.00 | 64 | 1010.1 |
| 20260504020202 | 48 | 253 | 1.0 | 1.0 | 0.00 | 0.00 | 0.00 | 63 | 1010.1 |
| 20260504015658 | 47 | 270 | 1.0 | 1.0 | 0.00 | 0.00 | 0.00 | 62 | 1010.2 |
| 20260504015155 | 48 | 239 | 1.0 | 1.0 | 0.00 | 0.00 | 0.00 | 60 | 1010.2 |
| 20260504014650 | 48 | 251 | 1.0 | 1.0 | 0.00 | 0.00 | 0.00 | 61 | 1009.9 |
| 20260504014148 | 48 | 260 | 1.0 | 1.0 | 0.00 | 0.00 | 0.00 | 60 | 1010.1 |
| 20260504013646 | 48 | 258 | 1.0 | 1.0 | 0.00 | 0.00 | 0.00 | 60 | 1010.0 |
| 20260504013142 | 48 | 268 | 1.0 | 1.0 | 0.00 | 0.00 | 0.00 | 58 | 1009.9 |
| 20260504012639 | 48 | 261 | 1.0 | 1.0 | 0.00 | 0.00 | 0.00 | 58 | 1010.0 |
| 20260504012137 | 49 | 253 | 1.0 | 2.0 | 0.00 | 0.00 | 0.00 | 57 | 1010.1 |
| 20260504011634 | 49 | 249 | 1.0 | 1.0 | 0.00 | 0.00 | 0.00 | 57 | 1010.0 |
| 20260504011130 | 50 | 279 | 1.0 | 1.0 | 0.00 | 0.00 | 0.00 | 57 | 1009.9 |
| 20260504010626 | 50 | 250 | 1.0 | 1.0 | 0.00 | 0.00 | 0.00 | 55 | 1009.8 |
| 20260504010121 | 50 | 250 | 1.0 | 1.0 | 0.00 | 0.00 | 0.00 | 51 | 1009.9 |
| 20260504005619 | 51 | 278 | 1.0 | 1.0 | 0.00 | 0.00 | 0.00 | 51 | 1009.6 |
| 20260504005115 | 51 | 286 | 0.0 | 0.0 | 0.00 | 0.00 | 0.00 | 49 | 1009.5 |
| 20260504004614 | 52 | 254 | 1.0 | 1.0 | 0.00 | 0.00 | 0.00 | 50 | 1009.8 |
| 20260504004111 | 52 | 276 | 1.0 | 1.0 | 0.00 | 0.00 | 0.00 | 47 | 1009.6 |
| 20260504003607 | 52 | 279 | 0.0 | 0.0 | 0.00 | 0.00 | 0.00 | 50 | 1009.5 |
| 20260504003103 | 53 | 247 | 1.0 | 1.0 | 0.00 | 0.00 | 0.00 | 48 | 1009.5 |
| 20260504002600 | 53 | 278 | 1.0 | 1.0 | 0.00 | 0.00 | 0.00 | 45 | 1009.4 |
| 20260504002058 | 53 | 263 | 1.0 | 1.0 | 0.00 | 0.00 | 0.00 | 47 | 1009.2 |
| 20260504001555 | 53 | 264 | 0.0 | 1.0 | 0.00 | 0.00 | 0.00 | 46 | 1009.3 |
| 20260504001051 | 54 | 275 | 1.0 | 1.0 | 0.00 | 0.00 | 0.00 | 46 | 1009.2 |
| 20260504000548 | 54 | 276 | 0.0 | 1.0 | 0.00 | 0.00 | 0.00 | 45 | 1009.1 |
| 20260504000046 | 55 | 257 | 1.0 | 1.0 | 0.00 | 0.00 | 0.00 | 43 | 1009.1 |
| 20260503235544 | 55 | 255 | 1.0 | 2.0 | 0.00 | 0.00 | 0.00 | 45 | 1009.1 |
| 20260503235041 | 56 | 254 | 1.0 | 1.0 | 0.00 | 0.00 | 0.00 | 41 | 1008.9 |
| 20260503234538 | 56 | 265 | 1.0 | 1.0 | 0.00 | 0.00 | 0.00 | 40 | 1008.9 |
| 20260503234037 | 56 | 268 | 1.0 | 1.0 | 0.00 | 0.00 | 0.00 | 43 | 1008.9 |
| 20260503233532 | 56 | 276 | 0.0 | 0.0 | 0.00 | 0.00 | 0.00 | 43 | 1008.7 |
| 20260503233028 | 57 | 231 | 1.0 | 2.0 | 0.00 | 0.00 | 0.00 | 41 | 1008.7 |
| 20260503232526 | 57 | 197 | 2.0 | 3.0 | 0.00 | 0.00 | 0.00 | 37 | 1008.7 |
| 20260503232023 | 57 | 78 | 0.0 | 1.0 | 0.00 | 0.00 | 0.00 | 40 | 1008.6 |
| 20260503231521 | 57 | 290 | 0.0 | 1.0 | 0.00 | 0.00 | 0.00 | 42 | 1008.5 |
| 20260503231018 | 58 | 261 | 0.0 | 1.0 | 0.00 | 0.00 | 0.00 | 37 | 1008.4 |
| 20260503230514 | 58 | 286 | 1.0 | 2.0 | 0.00 | 0.00 | 0.00 | 36 | 1008.4 |
| 20260503230012 | 58 | 278 | 1.0 | 2.0 | 0.00 | 0.00 | 0.00 | 36 | 1008.6 |
| 20260503225508 | 58 | 247 | 0.0 | 1.0 | 0.00 | 0.00 | 0.00 | 34 | 1008.2 |
| 20260503224958 | 58 | 15 | 1.0 | 2.0 | 0.00 | 0.00 | 0.00 | 35 | 1008.3 |
| 20260503224456 | 59 | 291 | 2.0 | 2.0 | 0.00 | 0.00 | 0.00 | 35 | 1008.3 |
| 20260503223953 | 59 | 259 | 1.0 | 1.0 | 0.00 | 0.00 | 0.00 | 35 | 1008.4 |
| 20260503223451 | 59 | 181 | 4.0 | 4.0 | 0.00 | 0.00 | 0.00 | 34 | 1008.4 |
| 20260503222946 | 59 | 329 | 1.0 | 2.0 | 0.00 | 0.00 | 0.00 | 34 | 1008.3 |
| 20260503222445 | 59 | 279 | 1.0 | 1.0 | 0.00 | 0.00 | 0.00 | 33 | 1008.3 |
| 20260503221943 | 60 | 302 | 1.0 | 2.0 | 0.00 | 0.00 | 0.00 | 36 | 1008.2 |
| 20260503221441 | 60 | 279 | 0.0 | 0.0 | 0.00 | 0.00 | 0.00 | 32 | 1008.0 |
| 20260503220938 | 59 | 179 | 1.0 | 2.0 | 0.00 | 0.00 | 0.00 | 30 | 1008.1 |
| 20260503220434 | 59 | 182 | 1.0 | 2.0 | 0.00 | 0.00 | 0.00 | 33 | 1008.0 |
| 20260503215931 | 59 | 299 | 1.0 | 2.0 | 0.00 | 0.00 | 0.00 | 34 | 1008.3 |
| 20260503215428 | 59 | 296 | 1.0 | 1.0 | 0.00 | 0.00 | 0.00 | 33 | 1008.2 |
| 20260503214926 | 59 | 262 | 3.0 | 4.0 | 0.00 | 0.00 | 0.00 | 30 | 1008.1 |
| 20260503214423 | 60 | 318 | 2.0 | 2.0 | 0.00 | 0.00 | 0.00 | 30 | 1008.1 |
| 20260503213920 | 60 | 320 | 1.0 | 1.0 | 0.00 | 0.00 | 0.00 | 29 | 1007.9 |
| 20260503213418 | 60 | 261 | 5.0 | 8.0 | 0.00 | 0.00 | 0.00 | 28 | 1008.1 |
| 20260503212914 | 61 | 229 | 5.0 | 6.0 | 0.00 | 0.00 | 0.00 | 28 | 1008.1 |
| 20260503212412 | 60 | 290 | 1.0 | 1.0 | 0.00 | 0.00 | 0.00 | 29 | 1008.0 |
| 20260503211909 | 61 | 300 | 1.0 | 2.0 | 0.00 | 0.00 | 0.00 | 29 | 1008.2 |
| 20260503211406 | 61 | 231 | 4.0 | 6.0 | 0.00 | 0.00 | 0.00 | 28 | 1008.1 |
| 20260503210901 | 61 | 271 | 1.0 | 2.0 | 0.00 | 0.00 | 0.00 | 29 | 1007.9 |
| 20260503210358 | 62 | 293 | 1.0 | 2.0 | 0.00 | 0.00 | 0.00 | 28 | 1008.1 |
| 20260503205853 | 61 | 299 | 3.0 | 4.0 | 0.00 | 0.00 | 0.00 | 28 | 1008.1 |
| 20260503205350 | 61 | 137 | 3.0 | 4.0 | 0.00 | 0.00 | 0.00 | 29 | 1007.9 |
| 20260503204847 | 62 | 254 | 2.0 | 2.0 | 0.00 | 0.00 | 0.00 | 31 | 1007.9 |
| 20260503204344 | 61 | 341 | 1.0 | 1.0 | 0.00 | 0.00 | 0.00 | 30 | 1008.0 |
| 20260503203841 | 60 | 253 | 2.0 | 2.0 | 0.00 | 0.00 | 0.00 | 31 | 1008.3 |
| 20260503203339 | 62 | 271 | 2.0 | 2.0 | 0.00 | 0.00 | 0.00 | 31 | 1008.2 |
| 20260503202835 | 61 | 302 | 2.0 | 3.0 | 0.00 | 0.00 | 0.00 | 32 | 1008.0 |
| 20260503202333 | 61 | 319 | 2.0 | 2.0 | 0.00 | 0.00 | 0.00 | 30 | 1008.0 |
| 20260503201831 | 62 | 214 | 2.0 | 2.0 | 0.00 | 0.00 | 0.00 | 33 | 1008.2 |
| 20260503201327 | 60 | 238 | 0.0 | 2.0 | 0.00 | 0.00 | 0.00 | 31 | 1008.3 |
| 20260503200825 | 60 | 251 | 2.0 | 3.0 | 0.00 | 0.00 | 0.00 | 30 | 1008.2 |
| 20260503200321 | 61 | 292 | 1.0 | 1.0 | 0.00 | 0.00 | 0.00 | 30 | 1008.4 |
| 20260503195819 | 60 | 316 | 2.0 | 3.0 | 0.00 | 0.00 | 0.00 | 31 | 1008.3 |
| 20260503195315 | 60 | 336 | 2.0 | 3.0 | 0.00 | 0.00 | 0.00 | 32 | 1008.4 |
| 20260503194813 | 60 | 241 | 7.0 | 9.0 | 0.00 | 0.00 | 0.00 | 30 | 1008.5 |
| 20260503194308 | 60 | 241 | 4.0 | 7.0 | 0.00 | 0.00 | 0.00 | 33 | 1008.7 |
| 20260503193805 | 59 | 279 | 0.0 | 0.0 | 0.00 | 0.00 | 0.00 | 33 | 1008.7 |
| 20260503193301 | 57 | 2 | 4.0 | 4.0 | 0.00 | 0.00 | 0.00 | 36 | 1008.7 |
| 20260503192757 | 57 | 309 | 2.0 | 3.0 | 0.00 | 0.00 | 0.00 | 33 | 1008.7 |
| 20260503192252 | 57 | 344 | 0.0 | 1.0 | 0.00 | 0.00 | 0.00 | 36 | 1008.9 |
| 20260503191749 | 58 | 128 | 1.0 | 1.0 | 0.00 | 0.00 | 0.00 | 36 | 1008.9 |
| 20260503191246 | 58 | 255 | 2.0 | 3.0 | 0.00 | 0.00 | 0.00 | 33 | 1009.0 |
| 20260503190742 | 57 | 238 | 6.0 | 9.0 | 0.00 | 0.00 | 0.00 | 35 | 1008.8 |
| 20260503190239 | 56 | 280 | 2.0 | 2.0 | 0.00 | 0.00 | 0.00 | 36 | 1009.0 |
| 20260503185736 | 56 | 255 | 2.0 | 3.0 | 0.00 | 0.00 | 0.00 | 36 | 1009.1 |
| 20260503185232 | 56 | 307 | 1.0 | 1.0 | 0.00 | 0.00 | 0.00 | 39 | 1008.9 |
| 20260503184727 | 57 | 336 | 2.0 | 2.0 | 0.00 | 0.00 | 0.00 | 36 | 1009.0 |
| 20260503184223 | 56 | 266 | 1.0 | 1.0 | 0.00 | 0.00 | 0.00 | 39 | 1009.1 |
| 20260503183720 | 56 | 302 | 1.0 | 1.0 | 0.00 | 0.00 | 0.00 | 36 | 1009.1 |
| 20260503183217 | 57 | 345 | 2.0 | 2.0 | 0.00 | 0.00 | 0.00 | 36 | 1009.2 |
| 20260503182715 | 57 | 285 | 1.0 | 1.0 | 0.00 | 0.00 | 0.00 | 37 | 1009.1 |
| 20260503182214 | 58 | 99 | 2.0 | 3.0 | 0.00 | 0.00 | 0.00 | 35 | 1009.2 |
| 20260503181709 | 57 | 356 | 1.0 | 2.0 | 0.00 | 0.00 | 0.00 | 36 | 1009.2 |
| 20260503181207 | 57 | 317 | 3.0 | 3.0 | 0.00 | 0.00 | 0.00 | 38 | 1009.4 |
| 20260503180703 | 56 | 239 | 1.0 | 1.0 | 0.00 | 0.00 | 0.00 | 37 | 1009.4 |
| 20260503180202 | 55 | 294 | 1.0 | 2.0 | 0.00 | 0.00 | 0.00 | 39 | 1009.5 |
| 20260503175658 | 54 | 229 | 2.0 | 2.0 | 0.00 | 0.00 | 0.00 | 41 | 1009.4 |
| 20260503175155 | 53 | 244 | 2.0 | 2.0 | 0.00 | 0.00 | 0.00 | 39 | 1009.6 |
| 20260503174651 | 53 | 67 | 3.0 | 4.0 | 0.00 | 0.00 | 0.00 | 42 | 1009.6 |
| 20260503174149 | 53 | 283 | 0.0 | 1.0 | 0.00 | 0.00 | 0.00 | 42 | 1009.6 |
| 20260503173644 | 53 | 93 | 1.0 | 1.0 | 0.00 | 0.00 | 0.00 | 40 | 1009.7 |
| 20260503173141 | 54 | 292 | 1.0 | 2.0 | 0.00 | 0.00 | 0.00 | 42 | 1009.7 |
| 20260503172638 | 53 | 275 | 1.0 | 2.0 | 0.00 | 0.00 | 0.00 | 40 | 1009.8 |
| 20260503172135 | 53 | 310 | 3.0 | 6.0 | 0.00 | 0.00 | 0.00 | 40 | 1009.9 |
| 20260503171631 | 53 | 281 | 4.0 | 6.0 | 0.00 | 0.00 | 0.00 | 40 | 1009.9 |
| 20260503171129 | 53 | 299 | 5.0 | 7.0 | 0.00 | 0.00 | 0.00 | 41 | 1009.9 |
| 20260503170626 | 53 | 118 | 1.0 | 2.0 | 0.00 | 0.00 | 0.00 | 44 | 1009.8 |
| 20260503170122 | 53 | 279 | 0.0 | 0.0 | 0.00 | 0.00 | 0.00 | 42 | 1010.1 |
| 20260503150514 | 52 | 353 | 2.0 | 3.0 | 0.00 | 0.00 | 0.00 | 39 | 1010.2 |
| 20260503131402 | 50 | 243 | 3.0 | 4.0 | 0.00 | 0.00 | 0.00 | 54 | 1010.2 |
| 20260503130859 | 50 | 246 | 1.0 | 2.0 | 0.00 | 0.00 | 0.00 | 51 | 1010.2 |
| 20260503130356 | 51 | 274 | 2.0 | 2.0 | 0.00 | 0.00 | 0.00 | 52 | 1010.2 |